"Pseudo-MPEC" for P10IjMT

Created 2018 Jul 14 13:18:14 UT using Find_Orb

Click here for an explanation of pseudo-MPECs

 
 Astrometry: 
     P10IjMT  C2018 06 18%wAstrometrywZ9huryee6ENfn_kQ.1E5v8=S7r34om(7Bk-eqCdF51
     P10IjMT  C2018 06 18EcYyH$PVjuEfgcsX[,G*TOuv)f^I7[36yl5GKfX;;W[]@T;U;b9oF51
     P10IjMT  C2018 06 18k5EuU]xm?1]rXs?)9QxTc3k]A-9\I,+ouQDQ4Bx-S[%1.ynG*FVmF51
     P10IjMT  C2018 07 10YGQ!.D7XPC'LtKWbGUJTjOfy(43[VZ:$1o2U-D`PK2$Pifwx6RB@F51
     P10IjMT  C2018 07 10ruH`v5ARp60'+C78AwhmcFw,3O^#[wSV9R55*_K;AV82IYckL8$2F51
     P10IjMT  C2018 07 10%Sp\hPZA,448##CcNredacted;8*_Pbc%Sj+kH=JUg-CqAXU,JX0F51
     P10IjMT  C2018 07 10GA8_%Qiu9-Tmw_8yVcTwpQI7o[l!+$eSF$8%/\!IiU@oT?%qM#g$F51
     P10IjMT |C2018 07 11XMaJ(l)HEOL8.5N/^=?T74c09Z]pH;vZB]_J*hr)=xAK4I5L@T'W807
     P10IjMT |C2018 07 11Bjg[J$,L?(-a@lfJZ8SQkOV%xE+?y2PuV1'B=-y:#?`Cit\wKML\807
     P10IjMT |C2018 07 11,J'7C[$tVZlg;4^IP^=.#XQGRgDX:p:tulVplgP^.FLmo#QfeTD!807
     P10IjMT |C2018 07 12w*y/xo#yjxkb/;.vEl*kw`u(M`7qWlHaseelW9aZl+37GBRUrx!i807
     P10IjMT |C2018 07 12@T*o61VM\3@+NfgMQ43dKZ`$jXk4EeBO[Y:k`wXZ(,FxMNOaam3u807
     P10IjMT |C2018 07 12-k?eG1TlPPvec6VJ34^ot+H3Q=NE*IRuirBTi*Vep@UDio(8Cg`y807
     P10IjMT |C2018 07 148=N7!Riwu;sOub3R']L]p3xVf%V@qMo.N!Q%vmy%h;ltwPFZn:[o807
     P10IjMT |C2018 07 14Xk57!U.N$pW%H\!o5Z7QM2N#XbKO`D4Q3Shh[G_8L-u(V0bm;5%C807
     P10IjMT |C2018 07 14l8+qgaWePcxV@xwg]6:Devu^n7NM4te@F,[#q1foA\6tZW1NEOCP807

Station data:
(807) Cerro Tololo Observatory, La Serena  (S30.169136 W70.805900)  Chile.
   1.5-m Ritchey-Chrétien.
(F51) Pan-STARRS 1, Haleakala  (N20.707235 W156.255910)  US/Hawaii.
   Observers N. Primak, A. Schultz, S. Watters, J. Thiel, T. Goggia. Measurer
   PS1 Science Consortium. 1.8-m Ritchey-Chrétien + CCD.

Orbital elements:  P10IjMT
   Perihelion 2019 Jun 15.151238 +/- 0.436 TT =  3:37:46 (JD 2458649.651238)
Epoch 2018 Jul 14.0 TT = JDT 2458313.5   Earth MOID: 0.7453   AutoNEOCP
M 268.26317 +/- 0.17                (J2000 ecliptic)
n   0.27290342 +/- 0.000199         Peri.  279.38508 +/- 0.12
a   2.35394726 +/- 0.00115          Node   110.91292 +/- 0.020
e   0.3334133 +/- 0.000301          Incl.   23.22144 +/- 0.015
P   3.61                   H 18.1   G  0.15   U  7.1  
q 1.56910985 +/- 0.000165    Q 3.13878468 +/- 0.00223
From 16 observations 2018 June 18-July 14; mean residual 0".09
Residuals in arcseconds: 
180618 F51  .02+  .20+    180710 F51  .05-  .13-    180712 807  .18+  .00     
180618 F51  .09-  .13-    180711 807  .10-  .08+    180714 807  .05+  .11-    
180618 F51  .06+  .07-    180711 807  .06+  .02-    180714 807  .04-  .03-    
180710 F51  .01-  .11+    180711 807  .06+  .21-    180714 807  .04-  .10+    
180710 F51  .08+  .03-    180712 807  .01-  .10+    
180710 F51  .08-  .07+    180712 807  .08-  .07+    

Ephemerides (geocentric):
Date (UTC) HH   RA              Dec         delta   r     elong  mag " sig PA
---- -- -- --  -------------   -----------  ------ ------ -----  --- ---- ---
2018 07 14 13  16 42 27.715   -06 36 55.43  1.7895 2.6171 135.9 22.3  .22 151
2018 07 14 14  16 42 25.981   -06 37 18.59  1.7897 2.6169 135.9 22.3  .22 151
2018 07 14 15  16 42 24.250   -06 37 41.75  1.7899 2.6168 135.8 22.3  .22 151
2018 07 14 16  16 42 22.521   -06 38 04.92  1.7901 2.6167 135.8 22.3  .23 151
2018 07 14 17  16 42 20.795   -06 38 28.11  1.7904 2.6166 135.8 22.3  .23 151
2018 07 14 18  16 42 19.072   -06 38 51.30  1.7906 2.6164 135.7 22.3  .24 151
2018 07 14 19  16 42 17.352   -06 39 14.50  1.7908 2.6163 135.7 22.3  .24 151
2018 07 14 20  16 42 15.634   -06 39 37.71  1.7910 2.6162 135.6 22.3  .24 151
2018 07 14 21  16 42 13.919   -06 40 00.93  1.7913 2.6160 135.6 22.3  .25 151
2018 07 14 22  16 42 12.207   -06 40 24.16  1.7915 2.6159 135.6 22.3  .25 151
2018 07 14 23  16 42 10.497   -06 40 47.40  1.7917 2.6158 135.5 22.3  .26 151
2018 07 15 00  16 42 08.790   -06 41 10.65  1.7919 2.6156 135.5 22.3  .26 151
2018 07 15 01  16 42 07.086   -06 41 33.91  1.7922 2.6155 135.4 22.3  .27 151
2018 07 15 02  16 42 05.384   -06 41 57.18  1.7924 2.6154 135.4 22.3  .27 151
2018 07 15 03  16 42 03.686   -06 42 20.46  1.7926 2.6152 135.4 22.3  .27 151
2018 07 15 04  16 42 01.990   -06 42 43.74  1.7928 2.6151 135.3 22.3  .28 151
2018 07 15 05  16 42 00.296   -06 43 07.04  1.7931 2.6150 135.3 22.3  .28 151
2018 07 15 06  16 41 58.606   -06 43 30.34  1.7933 2.6148 135.2 22.3  .29 151
2018 07 15 07  16 41 56.918   -06 43 53.66  1.7935 2.6147 135.2 22.3  .29 151
2018 07 15 08  16 41 55.233   -06 44 16.98  1.7937 2.6146 135.1 22.3  .29 151
2018 07 15 09  16 41 53.550   -06 44 40.31  1.7940 2.6144 135.1 22.3  .30 151
2018 07 15 10  16 41 51.871   -06 45 03.66  1.7942 2.6143 135.1 22.3  .30 150
2018 07 15 11  16 41 50.194   -06 45 27.01  1.7944 2.6142 135.0 22.3  .31 150
2018 07 15 12  16 41 48.520   -06 45 50.37  1.7946 2.6140 135.0 22.3  .31 150
2018 07 15 13  16 41 46.848   -06 46 13.74  1.7949 2.6139 134.9 22.3  .32 150
2018 07 15 14  16 41 45.179   -06 46 37.11  1.7951 2.6138 134.9 22.3  .32 150
2018 07 15 15  16 41 43.514   -06 47 00.50  1.7953 2.6136 134.9 22.3  .32 150
2018 07 15 16  16 41 41.850   -06 47 23.90  1.7956 2.6135 134.8 22.3  .33 150
2018 07 15 17  16 41 40.190   -06 47 47.31  1.7958 2.6134 134.8 22.3  .33 150
2018 07 15 18  16 41 38.532   -06 48 10.72  1.7960 2.6132 134.7 22.3  .34 150
2018 07 15 19  16 41 36.877   -06 48 34.14  1.7962 2.6131 134.7 22.3  .34 150
2018 07 15 20  16 41 35.225   -06 48 57.58  1.7965 2.6130 134.7 22.3  .35 150
2018 07 15 21  16 41 33.576   -06 49 21.02  1.7967 2.6129 134.6 22.3  .35 150
2018 07 15 22  16 41 31.929   -06 49 44.47  1.7969 2.6127 134.6 22.3  .35 150
2018 07 15 23  16 41 30.285   -06 50 07.93  1.7972 2.6126 134.5 22.3  .36 150
2018 07 16 00  16 41 28.644   -06 50 31.40  1.7974 2.6125 134.5 22.3  .36 150
2018 07 16 01  16 41 27.005   -06 50 54.88  1.7976 2.6123 134.5 22.3  .37 150
2018 07 16 02  16 41 25.370   -06 51 18.36  1.7979 2.6122 134.4 22.3  .37 150
2018 07 16 03  16 41 23.737   -06 51 41.86  1.7981 2.6121 134.4 22.3  .38 150
2018 07 16 04  16 41 22.107   -06 52 05.36  1.7983 2.6119 134.3 22.3  .38 150
2018 07 16 05  16 41 20.479   -06 52 28.88  1.7986 2.6118 134.3 22.3  .39 150
2018 07 16 06  16 41 18.855   -06 52 52.40  1.7988 2.6117 134.3 22.3  .39 150
2018 07 16 07  16 41 17.233   -06 53 15.93  1.7990 2.6115 134.2 22.3  .40 150
2018 07 16 08  16 41 15.614   -06 53 39.47  1.7993 2.6114 134.2 22.3  .40 150
2018 07 16 09  16 41 13.998   -06 54 03.02  1.7995 2.6113 134.1 22.3  .40 149
2018 07 16 10  16 41 12.384   -06 54 26.58  1.7997 2.6111 134.1 22.3  .41 149
2018 07 16 11  16 41 10.773   -06 54 50.14  1.8000 2.6110 134.1 22.3  .41 149
2018 07 16 12  16 41 09.166   -06 55 13.72  1.8002 2.6109 134.0 22.3  .42 149